Location: Eaton
(41.3139°N, 82.0207°W)
Time: 10:16:03
(UTC+00:00)

DMSP 5D-2 F13 DEB - Visible Passes

Search period start: 17 August 2022 00:00
Search period end: 27 August 2022 00:00
Orbit: 636 x 726 km, 98.8° (Epoch: 16 August)

Date Brightness Start Highest point End Pass type
(mag) Time Alt. Az. Time Alt. Az. Time Alt. Az.
17 Aug ? 06:40:58 14° ENE 06:41:50 15° ENE 06:44:21 10° NNE visible
17 Aug ? 08:19:24 47° WNW 08:19:24 47° WNW 08:22:59 10° NNW visible
18 Aug ? 07:17:35 33° ENE 07:17:36 33° ENE 07:21:32 10° N visible
18 Aug ? 08:56:02 20° WNW 08:56:02 20° WNW 08:58:23 10° NW visible
19 Aug ? 07:54:11 62° N 07:54:11 62° N 07:57:56 10° N visible
20 Aug ? 06:52:18 18° ENE 06:52:38 19° ENE 06:55:41 10° NNE visible
20 Aug ? 08:30:44 34° WNW 08:30:44 34° WNW 08:33:46 10° NNW visible
21 Aug ? 07:28:50 39° NE 07:28:50 39° NE 07:32:29 10° N visible
21 Aug ? 09:07:16 15° WNW 09:07:16 15° WNW 09:08:46 10° NW visible
22 Aug ? 06:26:55 10° ENE 06:27:38 10° ENE 06:28:22 10° NE visible
22 Aug ? 08:05:19 50° NNW 08:05:19 50° NNW 08:08:38 10° NNW visible
23 Aug ? 07:03:22 23° ENE 07:03:22 23° ENE 07:06:37 10° NNE visible
23 Aug ? 08:41:47 26° WNW 08:41:47 26° WNW 08:44:13 10° NNW visible
24 Aug ? 07:39:48 43° NNE 07:39:48 43° NNE 07:43:07 10° N visible
24 Aug ? 09:18:13 11° WNW 09:18:13 11° WNW 09:18:43 10° WNW visible
25 Aug ? 06:37:47 13° ENE 06:37:58 13° ENE 06:39:58 10° NE visible
25 Aug ? 08:16:12 38° NW 08:16:12 38° NW 08:19:03 10° NNW visible
26 Aug ? 07:14:09 27° NE 07:14:09 27° NE 07:17:12 10° N visible
26 Aug ? 08:52:35 19° WNW 08:52:35 19° WNW 08:54:21 10° NW visible
